User: anonymous   Login
Location: Caltech
(34.1382°N, 118.1253°W)
Time: 15:25:18
(UTC-08:00)
Language:

TITAN 4B R/B - Orbit

View from above orbital plane
View from above orbital plane
View from above satellite
View from above satellite

Ground track
Ground track

The orbit data is extracted from the following two-line orbital elements,

1 28647U 05016B   15035.71298623 0.00003500  00000-0  21587-3 0    08
2 28647  56.9986 275.8043 0137488 211.3730 148.6269 15.01873005    05
Epoch (UTC): 04 February 2015 17:06:42
Eccentricity: 0.0137488
inclination: 56.9986°
perigee height: 466 km
apogee height: 656 km
right ascension of ascending node: 275.8043°
argument of perigee: 211.3730°
revolutions per day: 15.01873005
mean anomaly at epoch: 148.6269°
orbit number at epoch: 0

The dashed part of the orbit path shows where the satellite is in the earth's shadow,  

DLR